[[{"header":{"parameterUnit":"m.s-1","parameterCategory":1,"la1":30.2991,"la2":30.254,"lo1":-89.0895,"lo2":-89.0444,"dy":0.0017,"dx":0.0017,"nx":28,"ny":28,"refTime":"2023-08-15T03:00:00:Z","depth":0,"parameterNumber":2,"parameterNumberName":"U-component_of_WINDS"},"data":[0,0,0,0,0,0,0,0,0,0,0,0,0,0,0,0,0,0,0,0,0,0,0,0,0,0,0,0,0,0,0,0,0,0,0,0,0,0,0,0,0,0,0,0,0,0,0,0,0,0,0,0,0,0,0,0,0,0,4.7135,4.7136,0,4.7267,4.7268,4.727,4.7216,4.7213,4.721,4.7207,4.7344,4.735,4.7357,0,0,0,0,0,0,0,0,0,0,0,0,0,4.6836,4.6842,4.7134,4.7136,4.7138,4.7267,4.7268,4.727,4.7216,4.7213,4.7209,4.7205,4.7342,4.735,4.7357,0,0,0,0,0,0,0,0,0,0,0,0,0,4.6967,4.6844,4.7134,4.7126,4.7127,4.7266,4.7269,4.7271,4.7217,4.7212,4.7208,4.7203,4.7339,4.7349,4.7359,4.7514,0,0,4.7389,4.7393,0,0,0,0,0,0,0,0,4.696,4.6978,4.7126,4.7127,4.7128,4.722,4.7214,4.7352,4.7218,4.7183,4.7206,4.7201,4.7307,4.7319,4.7354,4.752,4.7526,4.739,4.7396,4.74,4.7403,0,0,0,0,0,0,0,4.6951,4.6972,4.7187,4.7128,4.7129,4.7117,4.713,4.724,4.727,4.7186,4.7182,4.7198,4.7306,4.7345,4.7357,4.7528,4.7389,4.7398,4.7404,4.7408,4.7829,4.7834,0,0,0,0,0,0,4.6941,4.6965,4.7183,4.7191,4.703,4.7126,4.7141,4.7195,4.7268,4.7275,4.7202,4.7195,4.733,4.7345,4.7362,4.7549,4.74,4.7409,4.7415,4.7824,4.783,4.7836,0,0,0,0,0,0,4.6935,4.6961,4.7177,4.7077,4.7103,4.7136,4.7198,4.72,4.7239,4.7281,4.7286,4.7236,4.7327,4.7348,4.7476,4.7552,4.7413,4.7422,4.7818,4.7826,4.7833,4.7924,0,0,0,0,0,0,4.6927,4.6959,4.7018,4.7079,4.7109,4.729,4.7202,4.7206,4.7256,4.7248,4.7314,4.732,4.7325,4.7462,4.7486,4.7564,4.743,4.7811,4.7821,4.7831,4.7914,4.7934,4.795,0,0,0,0,0,4.6916,4.7039,4.7022,4.7048,4.7183,4.7294,4.7312,4.7314,4.7262,4.7322,4.7349,4.7318,4.754,4.7476,4.7502,4.7584,4.7806,4.7818,4.783,4.7906,4.793,4.795,0,0,0,0,0,0,4.6987,4.7047,4.7028,4.7174,4.7229,4.7285,4.736,4.7339,4.7411,4.7401,4.7401,4.7417,4.755,4.758,4.7507,4.7738,4.7665,4.7683,4.7714,4.7737,4.7755,4.7745,4.7438,0,0,0,0,0,4.702,4.7104,4.7152,4.7276,4.7304,4.7328,4.7376,4.7373,4.7431,4.7454,4.7491,4.7549,4.7631,4.7686,4.7764,4.7918,4.7932,4.7987,4.8005,4.802,4.8036,4.8119,4.8145,4.7875,4.7875,4.7874,0,0,4.7088,4.7131,4.7184,4.7291,4.7334,4.7422,4.7348,4.7444,4.7509,4.7469,4.7593,4.7622,4.7686,4.7828,4.7892,4.7857,4.8113,4.8035,4.8047,4.8054,4.8134,4.816,4.8183,4.7883,4.7881,4.788,0,0,4.7257,4.7298,4.7406,4.745,4.7515,4.753,4.7556,4.7615,4.7632,4.7756,4.7728,4.7806,4.7948,4.7996,4.8038,4.8226,4.82,4.8251,4.8346,4.8428,4.8449,4.8468,4.8535,4.8559,4.8266,4.8267,4.8267,0,4.7334,4.7465,4.7464,4.7563,4.7611,4.7577,4.7687,4.773,4.7818,4.7852,4.7811,4.7989,4.803,4.8183,4.8229,4.8264,4.8294,4.8244,4.8446,4.8465,4.8483,4.8547,4.8572,4.8272,4.8272,4.8271,4.8271,0,4.7556,4.7647,4.7726,4.7812,4.7868,4.7972,4.7988,4.8045,4.8038,4.8057,4.8184,4.8232,4.832,4.8356,4.8349,4.8508,4.8484,4.8445,4.8372,4.8514,4.8574,4.8599,4.8281,4.8279,4.8277,4.8275,0,0,4.7774,4.7857,4.7886,4.7924,4.7994,4.8065,4.8167,4.8252,4.8302,4.8364,4.845,4.8571,4.8536,4.8584,4.8583,4.8654,4.88,4.8606,4.8608,4.8641,4.8978,4.9007,4.9035,4.8783,4.8788,4.8792,4.8973,0,4.7949,4.8127,4.813,4.8294,4.8379,4.8348,4.8437,4.849,4.8511,4.8586,4.8609,4.8695,4.8641,4.867,4.874,4.8767,4.8868,4.8754,4.8864,4.8868,4.8849,4.9067,4.9098,4.9266,4.8996,4.9,4.9003,0,4.8176,4.8245,4.8418,4.8475,4.851,4.8591,4.8669,4.8741,4.88,4.881,4.8864,4.8852,4.8957,4.888,4.9025,4.8948,4.8993,4.9013,4.902,4.903,4.8944,4.9083,4.932,4.9346,4.904,4.9037,4.9034,0,4.8318,4.8454,4.8575,4.8608,4.8678,4.8735,4.8767,4.8822,4.8873,4.8941,4.8974,4.9055,4.9099,4.9162,4.9172,4.9115,4.9317,4.9241,4.9329,4.9329,4.9373,4.937,4.9621,4.9402,4.9402,4.9401,4.9401,0,4.8514,4.8621,4.8639,4.8714,4.8833,4.8835,4.8953,4.898,4.9029,4.9109,4.9087,4.9163,4.9171,4.9249,4.9258,4.9376,4.9396,4.9408,4.9409,4.941,4.9409,4.944,4.9428,4.9408,4.9406,4.9405,4.9404,0,4.8693,4.8709,4.8839,4.8894,4.8911,4.8996,4.9044,4.9115,4.9133,4.9235,4.9258,4.9288,4.9378,4.9394,4.9501,4.9507,4.9649,4.9638,4.9629,4.9627,4.9714,4.9706,4.9994,5.0032,4.9788,4.979,4.9792,0,4.8816,4.8898,4.8961,4.9013,4.9047,4.9131,4.9182,4.9187,4.9242,4.9316,4.9379,4.9467,4.9538,4.9684,4.9715,4.9797,4.9788,4.9883,4.98,4.9799,4.979,4.9785,4.9793,4.9899,4.9902,4.9904,4.9906,0,4.9034,4.9038,4.9113,4.9192,4.9254,4.9316,4.9375,4.9418,4.9431,4.9494,4.9586,4.9641,4.975,4.9838,4.9919,4.9952,4.9932,4.9931,4.9956,4.9958,4.995,4.9956,4.9672,4.9925,4.9923,4.9922,4.9921,4.992,4.919,4.926,4.9316,4.9401,4.9445,4.9501,4.957,4.9597,4.9674,4.9762,4.9761,4.9862,4.9919,5.0026,5.0064,5.0144,5.0113,5.0149,5.0158,5.0167,5.0175,4.9937,5.0159,5.0158,5.0158,5.0157,5.0157,0,4.9406,4.9441,4.9518,4.9601,4.9667,4.9641,4.9705,4.9762,4.9851,4.9906,4.9976,5.0082,5.0167,5.0205,5.0289,5.0345,5.0338,5.0367,5.0363,5.0371,5.0198,5.0168,5.0371,5.0371,5.0371,5.0371,5.0371,5.0371,4.9527,4.9646,4.9657,4.9797,4.9831,4.9929,4.9968,5.0019,5.0062,5.0181,5.0252,5.0275,5.0324,5.0411,5.0488,5.0497,5.0529,5.0563,5.0567,5.0405,5.0383,5.0362,5.0334,5.057,5.057,5.0734,5.0736,5.0737]},{"header":{"parameterUnit":"m.s-1","parameterCategory":1,"la1":30.2991,"la2":30.254,"lo1":-89.0895,"lo2":-89.0444,"dy":0.0017,"dx":0.0017,"nx":28,"ny":28,"refTime":"2023-08-15T03:00:00:Z","depth":0,"parameterNumber":3,"parameterNumberName":"V-component_of_WINDS"},"data":[0,0,0,0,0,0,0,0,0,0,0,0,0,0,0,0,0,0,0,0,0,0,0,0,0,0,0,0,0,0,0,0,0,0,0,0,0,0,0,0,0,0,0,0,0,0,0,0,0,0,0,0,0,0,0,0,0,0,-0.9465,-0.9466,0,-0.9504,-0.9504,-0.9504,-0.9513,-0.9513,-0.9513,-0.9512,-0.9552,-0.9553,-0.9554,0,0,0,0,0,0,0,0,0,0,0,0,0,-0.9401,-0.9402,-0.9465,-0.9466,-0.9466,-0.9503,-0.9504,-0.9505,-0.9513,-0.9513,-0.9512,-0.9512,-0.9551,-0.9553,-0.9554,0,0,0,0,0,0,0,0,0,0,0,0,0,-0.9433,-0.9402,-0.9465,-0.9475,-0.9476,-0.9503,-0.9504,-0.9505,-0.9513,-0.9513,-0.9512,-0.9512,-0.9551,-0.9552,-0.9554,-0.9574,0,0,-0.956,-0.9561,0,0,0,0,0,0,0,0,-0.9431,-0.9435,-0.9473,-0.9474,-0.9476,-0.9503,-0.9496,-0.9528,-0.9513,-0.9499,-0.9512,-0.9512,-0.9536,-0.9539,-0.9547,-0.9576,-0.9578,-0.956,-0.9562,-0.9562,-0.9563,0,0,0,0,0,0,0,-0.9429,-0.9433,-0.948,-0.9474,-0.9475,-0.9478,-0.9482,-0.9502,-0.9519,-0.95,-0.9501,-0.9506,-0.9536,-0.9545,-0.9548,-0.9578,-0.956,-0.9562,-0.9563,-0.9564,-0.9627,-0.9627,0,0,0,0,0,0,-0.9425,-0.9432,-0.9479,-0.9482,-0.9452,-0.9479,-0.9484,-0.9495,-0.9519,-0.9522,-0.9506,-0.9506,-0.9542,-0.9546,-0.9549,-0.9575,-0.9562,-0.9564,-0.9565,-0.9626,-0.9627,-0.9628,0,0,0,0,0,0,-0.9423,-0.9429,-0.9478,-0.9457,-0.9463,-0.9481,-0.9493,-0.9496,-0.9504,-0.9523,-0.9526,-0.9511,-0.9542,-0.9547,-0.9568,-0.9576,-0.9565,-0.9567,-0.9626,-0.9627,-0.9627,-0.9625,0,0,0,0,0,0,-0.9421,-0.9428,-0.9436,-0.9457,-0.9464,-0.9496,-0.9493,-0.9497,-0.9508,-0.9508,-0.9529,-0.9532,-0.9542,-0.9565,-0.957,-0.9578,-0.9568,-0.9625,-0.9626,-0.9627,-0.9624,-0.9626,-0.9627,0,0,0,0,0,-0.9419,-0.9433,-0.9436,-0.9442,-0.9474,-0.9496,-0.95,-0.9511,-0.9508,-0.9516,-0.9528,-0.9532,-0.9575,-0.9567,-0.9573,-0.9582,-0.9625,-0.9626,-0.9627,-0.9624,-0.9625,-0.9626,0,0,0,0,0,0,-0.9412,-0.9436,-0.9439,-0.9461,-0.9477,-0.9497,-0.9507,-0.9512,-0.9528,-0.9528,-0.9541,-0.9545,-0.9566,-0.9576,-0.9568,-0.9603,-0.96,-0.9602,-0.9595,-0.9597,-0.9598,-0.9595,-0.957,0,0,0,0,0,-0.9413,-0.9429,-0.9449,-0.9467,-0.9474,-0.949,-0.95,-0.9507,-0.9523,-0.9529,-0.9543,-0.9559,-0.9576,-0.9587,-0.9604,-0.9626,-0.9631,-0.9635,-0.9636,-0.9637,-0.9639,-0.9652,-0.9654,-0.9631,-0.9631,-0.9631,0,0,-0.9416,-0.9431,-0.944,-0.9466,-0.9478,-0.9495,-0.9495,-0.9512,-0.9524,-0.9532,-0.9553,-0.9564,-0.9583,-0.9605,-0.9615,-0.9614,-0.9646,-0.9639,-0.9639,-0.964,-0.9653,-0.9655,-0.9657,-0.9632,-0.9632,-0.9632,0,0,-0.9428,-0.9441,-0.9457,-0.947,-0.949,-0.95,-0.9504,-0.9524,-0.9532,-0.9554,-0.956,-0.9575,-0.9604,-0.9617,-0.9628,-0.9647,-0.965,-0.9652,-0.9657,-0.967,-0.9671,-0.9673,-0.968,-0.9682,-0.9654,-0.9654,-0.9654,0,-0.9429,-0.9453,-0.9465,-0.9482,-0.9493,-0.9501,-0.9518,-0.953,-0.9554,-0.9562,-0.956,-0.9597,-0.961,-0.9636,-0.9641,-0.9649,-0.9654,-0.9649,-0.967,-0.9672,-0.9674,-0.968,-0.9683,-0.9654,-0.9654,-0.9654,-0.9654,0,-0.9453,-0.947,-0.948,-0.9503,-0.9516,-0.9533,-0.9547,-0.9559,-0.9565,-0.9576,-0.9598,-0.9614,-0.9635,-0.9642,-0.9648,-0.9668,-0.9667,-0.9668,-0.9664,-0.9676,-0.9682,-0.9685,-0.9654,-0.9654,-0.9654,-0.9654,0,0,-0.9461,-0.9491,-0.9495,-0.9505,-0.9528,-0.9542,-0.9559,-0.9579,-0.9589,-0.9606,-0.962,-0.9646,-0.9647,-0.9659,-0.9667,-0.9678,-0.9692,-0.9677,-0.9678,-0.9679,-0.9716,-0.9715,-0.9717,-0.9695,-0.9695,-0.9696,-0.9714,0,-0.9476,-0.9507,-0.9518,-0.9544,-0.956,-0.9569,-0.9584,-0.96,-0.9611,-0.9626,-0.9638,-0.9656,-0.9656,-0.9663,-0.9675,-0.9688,-0.9699,-0.9687,-0.9709,-0.971,-0.9703,-0.9721,-0.9719,-0.9736,-0.9717,-0.9717,-0.9717,0,-0.9497,-0.9514,-0.9541,-0.9563,-0.957,-0.9583,-0.9603,-0.9618,-0.9636,-0.9643,-0.9657,-0.9665,-0.9684,-0.968,-0.9707,-0.9698,-0.9708,-0.9716,-0.9717,-0.9719,-0.9714,-0.9723,-0.9741,-0.9744,-0.9722,-0.9721,-0.9721,0,-0.95,-0.953,-0.955,-0.9559,-0.9585,-0.9594,-0.9605,-0.9623,-0.9635,-0.9652,-0.966,-0.968,-0.969,-0.9705,-0.9718,-0.9714,-0.9744,-0.9741,-0.975,-0.975,-0.9755,-0.9755,-0.9775,-0.9763,-0.9763,-0.9763,-0.9763,0,-0.9516,-0.9532,-0.9552,-0.9564,-0.9583,-0.9597,-0.9615,-0.9627,-0.9643,-0.9658,-0.9667,-0.9681,-0.9697,-0.9714,-0.9724,-0.9744,-0.9749,-0.9756,-0.9758,-0.9754,-0.9754,-0.9761,-0.976,-0.9763,-0.9763,-0.9763,-0.9763,0,-0.9522,-0.9536,-0.9559,-0.9581,-0.9587,-0.96,-0.9619,-0.9632,-0.9644,-0.9663,-0.9668,-0.9686,-0.9706,-0.972,-0.9746,-0.9753,-0.9775,-0.9778,-0.9769,-0.977,-0.9778,-0.9777,-0.9804,-0.9808,-0.9793,-0.9793,-0.9793,0,-0.953,-0.9543,-0.9567,-0.9578,-0.9589,-0.9606,-0.9618,-0.9632,-0.9645,-0.9667,-0.9677,-0.9697,-0.9714,-0.9746,-0.9761,-0.9781,-0.9784,-0.9792,-0.9787,-0.9783,-0.9784,-0.9783,-0.9785,-0.9793,-0.9793,-0.9793,-0.9793,0,-0.9544,-0.9551,-0.9568,-0.9587,-0.9601,-0.9618,-0.9634,-0.9642,-0.966,-0.9673,-0.9693,-0.9707,-0.9733,-0.9753,-0.9775,-0.9787,-0.9793,-0.9795,-0.9798,-0.9794,-0.9788,-0.9791,-0.977,-0.9794,-0.9794,-0.9794,-0.9793,-0.9793,-0.9551,-0.9563,-0.9582,-0.9601,-0.9615,-0.963,-0.9643,-0.9657,-0.9674,-0.9696,-0.9704,-0.9725,-0.9744,-0.9774,-0.9786,-0.9803,-0.9803,-0.9807,-0.9808,-0.9809,-0.9809,-0.9786,-0.9807,-0.9807,-0.9807,-0.9807,-0.9807,0,-0.9565,-0.9578,-0.9595,-0.9618,-0.9633,-0.9638,-0.9656,-0.9669,-0.9687,-0.9704,-0.9721,-0.9745,-0.9765,-0.9783,-0.9803,-0.9814,-0.9817,-0.9819,-0.9818,-0.9821,-0.9808,-0.9803,-0.9816,-0.9816,-0.9816,-0.9816,-0.9816,-0.9816,-0.9574,-0.9595,-0.9604,-0.9631,-0.9644,-0.9665,-0.9675,-0.969,-0.9703,-0.9729,-0.9746,-0.9758,-0.9775,-0.9798,-0.9816,-0.9821,-0.9828,-0.9829,-0.9835,-0.9822,-0.9821,-0.982,-0.9816,-0.9831,-0.9831,-0.9846,-0.9846,-0.9846]}]]